Weather in Dar es Salaam

Tanzania     6°46′39″S   39°13′57″E
temp.,
°C
wind,
m/s
gust,
m/s
humid.,
%
clouds,
%
prec.,
mm/h
press.,
hPa
HPBL,
m
22 january, sat
sat2200:00+27ne368090 0.0 1011394
03:00+26nne468399 0.4 1010403
06:00+25nne4890100 6.3 1011335
09:00+25nnw2490100 13.7 1013117
12:00+27n3581100 1.1 1011689
15:00+28nne3572100 1.2 1009925
18:00+27ne3579100 0.4 1009548
21:00+27ne3679100 0.4 1011412
23 january, sun
sun2300:00+27ne4780100 0.2 1011676
03:00+24nne4893100 9.6 1010432
06:00+24ese2391100 3.0 1011131
09:00+23w2597100 17.8 1014300
12:00+24nw2588100 1.4 1013264
15:00+25nnw4678100 1.4 1009566
18:00+25nw3583100 0.0 1008570
21:00+24nnw1287100 0.0 1010110
24 january, mon
mon2400:00+25nnw2584100 0.0 1009216
03:00+25nnw2586100 0.1 1008237
06:00+25nnw3787100 1.4 1009390
09:00+27n5878100 2.8 1010873
12:00+30nnw696124 0.0 10091203
15:00+31n585699 0.0 10061352
18:00+28ne5771100 0.0 1006834
21:00+27nne5978100 0.0 1008785
25 january, tue
tue2500:00+27nne61079100 0.0 10081002
03:00+26n61081100 0.3 1007893
06:00+26n5107699 0.0 1008931
09:00+28n61073100 0.0 1010918
12:00+30n61060100 0.0 10081269
15:00+31nne5952100 0.0 10061436
18:00+29ne687097 0.0 1006800
21:00+27ne587778 0.0 1009891
26 january, wed
wed2600:00+27nne587954 0.1 1009781
03:00+27nne587699 0.2 1008862
06:00+27nne4775100 0.0 1009912
09:00+28nne5872100 0.1 10111067
12:00+30nne576145 0.1 10091348
15:00+30nne576114 0.3 10071339
18:00+29ne57715 0.1 1007832
21:00+27ne587520 0.1 1009858